METEOR 2-5 DEB

Satellite information

Favourite Embed

Satellite Type and Status

DEBRISIN ORBIT

Key statistics

Satellite METEOR 2-5 DEB at a glance.

Uptime

16845

Days in orbit

Revolutions

≈ 14.5

Per day

Orbit

LEO

Low Earth Orbit

Inclination

81.2

Latest

Satellite identification and parameters

Extended collection of information and parameters for METEOR 2-5 DEB.

Object identification

Identified? True

Debris? True

Object name: METEOR 2-5 DEB

International designator: 1979-095K

Object number (NORAD): 28974

Object ID (CCSDS): 28974

Country: COMMONWEALTH OF INDEPENDENT STATES (CIS)

Current information (Y/N): Y

RCS size: SMALL

Orbital parameters

Period: 99.586 minutes

Inclination: 81.195 deg

SMA: 7116.908 km

Apoapsis: 749.29 km

Periapsis: 728.256 km

RAAN: 285.9694 deg

Eccentricy: 0.00147775

Argument of periapsis: 108.9327 deg

Mean anomaly: 251.3466 deg

Mean motion: 14.45991588 rev/day

Mean motion (dot): 0.00017396 rev/day2

B* drag term: 0.0048662378 1/REarth

Two-line elements (TLE)

Creation date: Dec. 11, 2025, 7:14 p.m.

Reference frame: TEME

Reference center: EARTH

Epoch: Dec. 11, 2025, 1:44 p.m. UTC

TLE line 0: 0 METEOR 2-5 DEB

TLE line 1: 1 28974U 79095K 25345.57247931 .00017396 00000-0 48662-2 0 9991

TLE line 2: 2 28974 81.1950 285.9694 0014778 108.9327 251.3466 14.45991588 23125

Live tracking on map

Real-time ground track for satellite METEOR 2-5 DEB.

In-orbit conjunctions

A list of the most updated potential collisions computed for object METEOR 2-5 DEB.

Target Orbit TCA Probability of collision Miss distance Type
COSMOS 407 LEO 2024-12-11 04:17:23 0.0001299117 258.0 (m) PAYLOAD
NOAA 16 DEB SSO 2024-11-11 14:11:18 0.0001987592 157.0 (m) DEBRIS

Associated space launch

Second generation soviet meteorological satellite

METEOR 2-5 DEB was lifted into orbit during the mission ‘Vostok 8A92M | Meteor-2 5’, on board a Vostok 8A92M space rocket.

The launch took place on Oct. 31, 1979, 9:25 a.m. from 43/4 (43R).

For more information about the launch, click the button.

Launch to space Vostok 8A92M | Meteor-2 5
Vostok 8A92M | Meteor-2 5

Agency: N/A

Status: Launch Successful

Launch date: Oct. 31, 1979, 9:25 a.m. UTC

Rocket: Vostok 8A92M

Launch pad: 43/4 (43R)

Location: Plesetsk Cosmodrome, Russian Federation

...

Latest news about this satellite

There are no fresh news available about this satellite. Check back as we update our databases every day.


Newsletter sign-up

Weekly statistics, charts and insights to help you stay on top of the space industry.